This is the latest recevied weather packets stored in our database for station/object EA7OC-10. If no packets are shown the sender has not sent any weather packets the latest 10 day(s).
| Time | Temp. | Humidity | Pressure | Rain* | Wind** | Luminosity | Snow |
|---|---|---|---|---|---|---|---|
| 1777594782 | 17.22° C | 34% | 1018.9 hPa | - | - | - | - |
| 1777593882 | 17.22° C | 34% | 1018.9 hPa | - | - | - | - |
| 1777592982 | 17.78° C | 34% | 1018.6 hPa | - | - | - | - |
| 1777592082 | 17.78° C | 34% | 1018.5 hPa | - | - | - | - |
| 1777591182 | 18.33° C | 34% | 1018.4 hPa | - | - | - | - |
| 1777590280 | 18.89° C | 34% | 1018.4 hPa | - | - | - | - |
| 1777589380 | 18.89° C | 34% | 1018.4 hPa | - | - | - | - |
| 1777588480 | 19.44° C | 34% | 1018.4 hPa | - | - | - | - |
| 1777587579 | 19.44° C | 34% | 1018.2 hPa | - | - | - | - |
| 1777586679 | 20° C | 34% | 1018.2 hPa | - | - | - | - |
| 1777585779 | 20° C | 34% | 1018.1 hPa | - | - | - | - |
| 1777584879 | 20° C | 33% | 1018.1 hPa | - | - | - | - |
| 1777583979 | 20.56° C | 33% | 1017.9 hPa | - | - | - | - |
| 1777583079 | 20.56° C | 33% | 1017.6 hPa | - | - | - | - |
| 1777582179 | 21.11° C | 34% | 1017.4 hPa | - | - | - | - |
| 1777581278 | 21.11° C | 33% | 1017.1 hPa | - | - | - | - |
| 1777580378 | 21.67° C | 33% | 1016.9 hPa | - | - | - | - |
| 1777579478 | 21.67° C | 33% | 1016.6 hPa | - | - | - | - |
| 1777578578 | 22.22° C | 34% | 1016.3 hPa | - | - | - | - |
| 1777577678 | 23.33° C | 33% | 1016.2 hPa | - | - | - | - |
| 1777576778 | 23.89° C | 33% | 1016 hPa | - | - | - | - |
| 1777575877 | 24.44° C | 33% | 1015.9 hPa | - | - | - | - |
| 1777574977 | 25° C | 33% | 1015.8 hPa | - | - | - | - |
| 1777574077 | 26.67° C | 33% | 1015.7 hPa | - | - | - | - |
| 1777573177 | 27.22° C | 34% | 1015.7 hPa | - | - | - | - |
* Rain since midnight (hover to see other rain measurements)
** Current wind speed in m/s (hover to see current wind gust speed)